Wind_Speed
37 35 39 44 46 49 47 47 46 32 22 26 31 29 26 24 23 26 27 29 29 28 30 34 34 36 37 36 35 33 28 24 26 29 27 27 30 33 34 32 28 27 24 21 21 22 21 21 22 22 23 22 23 21 18 16 16 15 14 13 15 15 15 21 26 26 27 26 26 26 25 23 22 21 21 20 20 21 22 22 22 20 18 17 15 13
35 38 44 48 45 44 43 42 42 33 19 19 26 28 26 22 19 21 23 25 27 27 27 28 28 31 34 34 33 33 33 28 25 27 29 29 30 31 33 32 29 26 23 21 21 21 22 23 24 23 23 23 22 20 18 16 15 15 15 15 16 16 16 20 25 27 27 26 26 26 24 22 22 21 20 20 20 21 21 21 21 19 18 16 14 13
38 44 47 44 40 37 37 38 39 33 21 17 22 25 27 25 19 17 19 20 22 25 26 25 24 26 29 31 32 31 34 32 28 27 28 29 29 29 30 31 30 27 23 21 21 21 22 23 24 23 22 23 23 20 19 18 17 16 17 17 17 16 16 21 26 28 27 26 26 25 23 22 22 21 20 20 20 21 20 20 20 18 17 15 14 14
38 41 46 40 35 34 33 33 37 35 26 20 21 23 25 27 23 18 18 19 20 22 24 24 24 25 25 27 29 29 30 33 32 30 28 28 28 27 27 29 29 27 23 21 20 20 22 24 22 21 22 23 23 21 19 18 17 18 19 19 18 16 16 22 28 30 28 26 25 24 24 24 23 22 20 19 20 20 19 18 18 17 16 15 15 15
34 30 38 38 32 31 32 31 33 37 32 24 23 23 23 25 25 21 21 21 19 20 22 20 20 24 27 26 25 26 29 32 34 34 32 29 28 25 25 28 29 27 24 21 20 21 22 22 19 20 22 22 23 21 19 18 17 19 20 19 18 16 16 21 26 29 29 27 25 25 27 26 24 23 20 20 20 18 17 17 17 16 15 15 16 15
34 25 27 33 34 31 30 32 34 36 35 29 25 24 21 20 21 21 22 22 19 18 21 19 12 14 24 30 26 23 26 31 33 35 35 31 28 26 26 28 29 27 25 23 23 23 22 20 19 20 22 22 22 20 19 18 18 21 23 22 20 17 18 21 24 28 30 29 27 27 28 26 23 21 19 19 18 17 17 17 17 16 16 16 16 16
32 24 18 23 32 34 30 30 34 35 34 33 28 24 22 20 19 20 20 21 19 17 19 21 15 8 14 27 30 26 24 27 31 32 35 34 30 28 27 27 28 27 26 25 25 24 22 21 21 21 22 22 22 20 18 17 21 25 26 23 20 17 19 22 25 29 32 31 30 30 29 25 22 20 19 17 16 17 18 18 17 17 16 16 16 15
33 28 16 16 24 32 33 30 33 34 32 33 30 24 22 23 22 21 19 17 16 17 20 23 21 13 12 19 25 28 28 27 29 31 32 33 32 30 29 28 28 28 27 26 25 24 22 22 21 21 22 23 22 19 18 19 24 27 23 19 17 16 19 22 25 29 31 32 32 31 27 24 21 20 19 17 17 18 18 18 17 16 16 15 15 15
28 31 21 18 23 29 35 33 31 32 29 31 31 25 22 23 23 21 19 16 11 11 17 22 21 14 13 19 21 24 30 31 30 29 29 31 32 31 32 30 29 28 28 27 26 24 23 22 22 22 22 23 22 19 19 22 23 21 18 17 17 17 18 22 26 28 30 31 31 27 23 22 21 20 19 19 18 18 18 17 17 15 15 15 14 15
14 29 25 20 23 26 31 32 29 29 27 27 29 26 23 21 21 20 17 14 10 8 11 17 20 13 9 20 27 23 27 32 32 29 28 29 30 31 32 33 31 30 29 28 28 26 24 24 23 22 22 22 20 20 21 20 18 18 18 17 17 18 19 22 27 29 32 32 28 23 20 21 21 19 18 19 17 17 17 17 16 15 15 14 14 15
6 21 26 22 23 22 22 25 27 27 24 21 24 28 26 22 20 18 15 12 9 8 11 16 18 13 7 15 29 31 27 27 29 31 30 27 28 30 32 33 33 32 31 30 29 28 26 25 23 22 22 21 20 22 22 20 19 21 20 17 17 19 20 23 28 31 34 31 23 21 21 21 21 18 17 17 15 15 16 16 16 14 14 14 14 14
10 17 29 27 23 19 17 23 25 24 24 20 21 28 26 21 18 15 14 13 9 4 8 16 18 14 11 11 18 28 30 26 25 28 30 29 29 30 30 31 32 32 32 32 31 29 27 25 24 23 22 22 22 23 23 23 23 22 19 16 17 21 23 25 29 31 33 28 20 22 24 21 19 16 15 14 14 16 15 16 16 13 12 13 13 14
14 17 28 29 24 21 19 24 25 24 27 24 23 29 23 13 11 10 9 8 7 3 2 11 17 14 15 18 16 19 24 27 27 26 27 29 29 29 29 29 31 31 32 33 31 29 27 25 24 23 21 23 23 23 24 24 21 18 16 16 17 21 25 28 30 32 33 27 22 23 24 20 17 16 14 12 14 17 15 15 16 13 12 13 14 15
16 13 22 26 25 26 23 27 31 29 32 32 29 31 22 9 7 8 8 4 2 5 5 8 13 10 12 20 23 21 20 22 25 27 27 29 29 29 29 29 31 31 31 31 30 28 27 25 24 23 23 24 24 23 24 23 20 16 15 17 18 20 25 29 31 33 32 26 22 25 24 19 17 16 14 12 14 17 16 14 15 14 12 13 14 15
19 9 18 27 26 30 28 27 33 33 34 35 31 28 20 11 7 6 6 5 2 4 7 8 8 6 7 13 20 22 22 22 24 27 28 29 30 30 29 30 32 32 31 30 28 28 27 25 25 24 24 26 25 23 23 22 20 17 16 18 19 20 23 27 30 32 29 22 21 26 23 18 16 15 15 14 15 17 15 13 15 14 12 13 14 15
21 7 13 26 24 30 32 25 28 32 30 33 32 27 23 15 9 6 5 6 6 4 6 10 9 7 5 8 14 18 21 24 26 28 29 29 30 30 30 31 32 32 31 29 28 28 28 27 27 26 26 27 25 23 23 22 20 18 18 18 19 20 22 25 27 29 26 19 18 22 21 18 17 15 15 15 16 17 15 14 15 13 11 13 15 16
21 9 10 22 20 26 33 27 27 29 27 31 31 27 27 19 10 7 6 7 8 5 5 8 11 14 9 8 13 19 20 22 23 25 29 29 28 28 30 31 32 32 30 28 27 27 28 29 28 27 28 28 26 24 23 23 20 19 19 18 18 20 21 24 25 26 23 18 16 17 19 19 17 15 15 15 16 16 14 14 15 13 12 14 16 17
21 13 12 21 19 20 29 28 26 27 28 33 31 25 26 21 10 7 5 5 7 6 5 6 9 14 13 9 10 16 20 22 20 19 23 28 27 27 30 32 32 32 29 27 27 28 28 29 28 27 29 29 26 25 24 22 20 19 20 19 18 19 21 23 24 23 20 17 16 16 18 18 17 15 15 16 15 14 13 14 15 13 14 16 17 17
20 14 12 22 20 18 26 28 25 28 30 31 31 27 24 17 12 8 3 3 6 4 2 5 8 12 17 17 13 13 17 20 21 19 19 23 26 28 31 33 32 31 29 27 27 29 29 29 28 28 30 30 27 26 24 22 21 20 20 20 19 19 21 23 23 21 18 17 18 19 19 18 17 16 16 16 14 13 13 15 15 14 15 17 17 18
22 12 10 23 23 20 29 32 29 32 31 27 29 30 23 13 13 13 6 3 6 4 2 3 4 9 17 22 20 15 13 15 20 20 17 19 24 29 31 31 30 29 27 26 27 28 28 28 29 30 30 29 27 25 23 21 21 22 21 21 20 19 20 22 22 21 20 20 20 20 19 18 17 15 14 13 14 14 15 17 16 15 16 16 16 17
23 13 8 23 26 23 30 34 32 33 33 27 25 29 24 13 13 16 11 7 5 2 3 4 2 7 12 16 20 19 14 13 16 18 16 18 23 28 28 26 27 27 25 26 26 27 27 28 30 31 30 29 27 25 23 22 22 23 22 21 21 20 19 21 22 23 23 22 20 19 18 18 16 13 10 10 13 16 17 16 15 15 15 15 16 16
19 12 10 25 27 20 24 31 32 32 34 29 24 27 26 15 14 15 11 12 9 1 2 3 2 7 11 12 16 20 20 17 15 16 16 19 23 26 25 25 25 25 24 25 26 26 27 29 30 30 29 29 28 25 23 23 23 24 22 21 21 21 20 21 22 23 23 23 22 20 19 19 17 13 10 10 13 16 16 14 13 13 14 15 16 16
13 8 10 20 22 14 15 25 30 31 32 30 24 27 28 21 17 15 10 11 13 6 2 2 3 5 11 17 17 17 21 20 15 16 17 20 23 24 24 24 25 24 23 25 26 25 27 29 29 28 29 29 28 25 23 23 23 24 23 22 23 22 21 21 22 22 22 23 23 21 20 20 18 14 11 11 14 15 15 14 13 13 14 15 16 16
8 6 9 15 17 13 13 19 26 28 29 31 29 29 31 29 21 15 14 15 13 9 5 2 3 4 8 19 21 18 19 20 16 16 19 21 24 23 22 23 24 24 24 25 26 26 26 27 28 28 28 28 26 24 23 22 22 23 23 23 23 23 22 21 21 22 24 23 22 21 20 18 16 14 13 13 15 15 14 14 14 14 14 15 16 16
6 6 13 15 12 9 10 12 19 27 30 33 34 30 30 31 24 16 18 20 14 12 10 3 4 4 2 10 20 20 20 20 17 17 20 22 23 23 20 20 23 26 26 27 28 28 27 27 27 27 27 27 25 24 22 22 22 23 23 24 24 24 23 21 20 22 24 23 22 19 16 15 14 14 14 14 17 17 16 16 16 15 15 15 16 16
4 5 11 14 12 9 9 11 20 33 35 32 34 31 27 30 29 20 16 17 13 12 14 12 9 6 2 3 12 18 18 17 17 19 22 24 25 25 20 16 20 25 27 29 30 30 28 27 26 26 26 25 24 23 21 21 22 23 24 25 25 25 24 22 21 22 24 24 21 14 11 13 13 14 15 17 18 19 18 18 17 16 15 15 16 16
5 6 6 13 21 20 16 13 20 31 34 28 30 32 28 28 32 26 15 14 16 12 14 21 19 12 5 6 6 12 14 14 17 20 23 25 26 24 21 17 19 24 29 31 32 30 29 27 25 25 24 23 22 21 20 21 22 24 26 26 26 24 23 23 23 22 22 22 18 11 10 14 15 15 16 18 19 19 18 18 17 16 16 16 15 15
8 8 4 6 13 18 19 18 20 26 29 29 28 30 29 26 30 33 23 16 18 13 12 21 23 18 11 9 9 8 9 11 16 19 23 26 24 22 21 20 22 26 30 31 31 30 28 26 24 23 22 21 20 20 20 21 23 24 25 26 26 24 23 23 22 22 21 21 19 15 14 14 15 17 17 18 18 19 18 18 17 17 17 16 15 15
8 6 3 3 4 10 19 20 21 24 27 27 27 28 30 27 28 35 30 20 18 16 12 13 14 14 11 10 11 8 6 9 15 18 21 23 22 21 22 22 23 26 30 30 30 29 26 24 23 21 20 19 19 19 20 21 23 23 23 24 24 23 22 21 22 22 21 20 20 19 16 13 15 17 17 17 18 19 19 19 19 19 18 17 16 15
6 5 3 7 7 9 20 19 20 25 25 25 25 27 30 28 27 32 32 25 21 19 16 12 9 9 7 8 9 7 6 8 13 18 21 21 21 21 22 23 23 26 30 30 28 26 24 22 20 18 17 18 17 17 18 19 20 20 20 20 20 19 19 20 23 23 22 20 19 19 17 15 16 17 17 17 18 19 21 21 20 19 18 17 16 15
7 8 6 10 6 12 22 20 20 23 24 23 24 26 29 29 28 30 30 28 25 23 21 18 15 11 7 7 7 6 6 6 8 14 20 22 21 21 21 22 24 28 30 29 26 24 21 19 18 17 16 16 16 16 16 16 17 18 17 17 16 17 18 20 23 23 21 20 19 17 15 15 17 17 17 18 19 20 21 21 20 19 17 16 15 14
9 10 9 11 4 13 24 24 22 23 23 23 24 28 31 31 29 29 28 25 24 24 22 20 17 12 8 7 4 6 8 6 6 10 16 20 21 21 21 24 27 29 29 27 24 22 20 18 16 15 14 14 15 15 15 15 15 15 15 16 18 18 19 21 23 21 19 18 18 17 15 17 18 18 18 19 20 21 22 21 19 17 16 15 14 13
11 9 10 12 4 12 23 26 27 26 19 18 24 30 32 30 27 26 24 21 20 20 19 19 15 11 9 7 4 5 8 9 8 8 12 17 19 21 23 27 29 29 27 25 23 21 18 16 14 13 13 13 14 15 15 14 14 14 14 16 17 17 17 19 21 20 18 17 17 17 16 18 20 19 18 19 21 22 22 20 19 18 17 16 15 15
10 9 11 11 3 9 18 24 27 20 9 11 23 29 29 27 24 22 19 15 15 16 17 17 15 12 11 9 5 4 8 11 11 9 10 12 16 20 24 27 27 26 25 24 22 19 16 14 14 13 13 13 14 14 15 14 14 14 14 15 16 14 14 16 19 20 18 17 16 15 15 17 19 19 19 19 20 20 17 17 20 21 19 17 15 15
9 9 11 8 2 13 21 24 18 8 4 11 22 26 26 25 22 19 17 13 12 13 14 15 15 14 12 9 7 5 7 12 14 12 11 11 14 19 23 24 24 24 23 21 19 16 14 14 14 14 14 14 14 15 15 14 13 13 13 14 15 13 13 15 17 17 17 16 15 13 13 15 17 17 17 17 17 15 11 12 17 19 17 15 14 14
11 10 8 2 9 17 21 19 10 5 7 12 18 22 24 24 22 21 20 17 15 14 13 13 13 13 12 10 8 7 8 12 14 14 13 12 15 19 20 21 21 21 20 18 16 14 13 14 14 15 15 16 15 15 15 14 13 13 13 14 15 13 13 14 14 15 16 16 14 13 12 12 13 14 14 14 14 13 12 14 16 16 15 14 14 14
8 5 1 5 11 16 17 15 13 11 10 9 15 20 22 22 22 21 19 18 17 15 13 12 12 12 12 10 8 6 8 11 13 14 14 12 15 19 19 19 19 18 18 18 16 15 15 15 17 17 17 18 17 15 15 14 14 14 14 15 15 13 13 14 15 16 16 15 15 14 13 12 12 12 12 13 14 15 15 15 15 14 14 14 13 13
4 2 2 4 10 19 22 17 11 7 6 6 13 20 22 21 21 19 17 16 15 14 14 13 13 13 12 11 8 7 9 11 12 13 14 14 16 19 18 16 16 15 13 15 16 16 16 16 18 19 19 19 18 16 15 15 14 14 15 15 15 14 14 15 16 16 15 15 16 16 15 15 14 14 14 15 16 17 16 15 14 14 14 13 13 12
2 2 5 8 14 23 22 13 4 3 5 8 12 19 23 22 21 19 16 13 15 15 15 15 14 14 13 11 9 8 8 10 11 11 13 14 16 20 20 18 16 12 8 9 14 17 18 19 19 20 20 21 20 18 17 16 15 16 15 15 15 15 15 14 15 15 15 16 17 17 16 16 16 17 16 17 18 18 17 15 15 14 13 12 12 11
5 7 10 13 16 20 19 13 7 6 9 10 12 17 22 22 22 19 12 9 14 17 17 16 15 14 13 12 10 9 8 10 12 11 12 13 15 18 19 19 19 16 10 9 13 17 20 21 20 19 20 21 22 21 20 19 18 17 15 14 13 13 13 13 14 16 17 18 18 17 16 16 17 17 18 20 21 20 17 16 15 14 13 12 12 12
10 11 12 15 16 18 19 15 11 10 13 13 12 15 20 22 21 16 10 11 16 18 18 18 16 14 13 12 12 11 10 10 12 13 13 12 13 14 14 14 16 16 13 11 13 15 18 19 19 18 19 21 23 23 23 22 21 19 16 14 13 13 12 13 14 15 17 19 18 15 15 16 17 17 20 24 24 20 17 16 15 14 13 13 13 12
10 11 12 15 15 17 21 19 13 12 12 12 13 15 18 19 17 14 13 16 16 16 17 18 17 14 13 13 14 12 10 10 12 13 14 13 13 13 13 12 12 13 13 13 14 14 14 15 16 16 18 21 24 24 24 24 23 20 18 16 14 12 12 14 15 15 17 18 16 15 16 18 18 18 22 25 22 18 17 16 15 14 14 13 13 12
9 9 11 13 12 14 18 16 10 8 9 10 12 14 14 15 14 14 15 16 16 15 16 16 16 14 13 15 16 14 11 11 12 13 15 15 14 14 13 12 12 11 12 13 13 14 13 13 13 15 17 20 22 24 25 25 24 21 19 17 14 12 13 15 16 16 17 16 15 15 17 17 16 18 22 23 20 17 16 16 15 15 14 13 13 12
10 9 10 11 10 8 10 10 9 9 9 8 10 12 12 13 14 13 13 14 14 15 15 15 15 14 13 15 17 15 14 13 13 14 15 15 14 13 13 13 13 13 13 13 13 14 14 14 13 13 13 16 19 21 23 24 23 22 20 16 12 13 16 17 16 17 17 15 15 16 15 14 15 19 22 21 18 16 16 16 16 16 15 14 13 13
10 11 11 12 12 11 12 15 16 15 12 11 12 13 13 13 13 11 11 12 13 14 15 16 15 15 15 16 16 15 15 15 15 15 15 14 13 13 14 14 15 15 15 15 15 15 15 15 15 13 13 14 15 18 21 22 22 20 18 15 13 15 17 17 17 18 17 16 16 17 16 16 17 19 20 18 16 16 16 17 16 16 15 14 14 14
13 14 14 16 18 19 19 19 18 15 14 14 14 14 12 11 9 8 9 10 11 12 15 16 16 17 17 17 17 16 16 17 17 16 16 15 15 15 15 16 16 16 16 16 16 16 16 15 15 15 14 14 14 17 20 20 18 15 15 15 16 17 18 18 19 20 18 17 17 17 17 17 18 18 18 17 17 17 18 18 17 16 15 15 14 15
11 12 14 16 16 17 18 18 17 16 15 13 12 13 12 10 8 7 8 9 9 11 14 15 16 18 19 19 20 19 18 18 20 19 17 16 16 15 16 16 16 16 16 16 16 16 15 15 14 14 14 14 14 16 16 14 13 12 14 16 17 18 18 20 21 20 19 18 18 17 17 17 17 17 17 17 17 18 19 19 18 17 16 15 15 15
10 11 13 13 12 14 16 17 15 14 12 11 10 10 9 8 8 7 8 8 10 12 13 14 15 16 18 19 21 21 21 20 21 21 20 18 17 16 16 16 17 17 16 16 15 15 15 15 14 14 14 14 15 15 15 15 15 16 17 18 19 19 20 22 23 21 20 19 19 18 18 17 17 17 16 17 18 19 19 18 18 17 17 17 16 15
10 10 11 10 11 14 15 14 13 12 11 10 9 8 7 6 6 6 6 7 8 10 12 14 16 16 18 18 19 21 21 20 21 24 24 21 19 16 16 17 18 19 18 17 16 16 15 15 15 15 15 15 16 16 19 20 20 20 21 21 21 21 21 23 23 21 20 20 20 19 18 18 18 18 17 18 19 20 20 19 19 19 19 18 18 16
10 10 10 9 10 11 11 11 11 9 8 7 6 6 6 5 5 5 5 6 6 8 9 12 15 17 19 20 20 21 21 20 21 24 26 24 21 17 16 17 18 19 19 19 19 18 17 16 16 15 16 16 15 15 18 21 23 24 24 23 22 22 21 22 23 22 21 21 20 20 19 19 19 19 19 20 20 20 21 21 21 21 20 18 17 17
8 9 10 9 8 8 9 9 9 7 6 6 5 4 5 5 5 6 5 5 6 6 7 10 13 15 18 20 21 21 21 21 20 21 24 25 24 21 19 19 19 20 20 19 20 19 18 18 17 16 17 17 15 13 15 19 23 25 24 22 22 22 22 23 23 22 22 21 20 19 19 19 20 20 21 21 21 21 21 21 20 20 19 18 17 17
Wind_Direction
211 212 213 213 214 214 213 212 211 214 220 218 217 215 215 219 222 226 228 226 227 231 235 236 238 240 238 235 232 227 226 224 220 218 218 216 211 208 208 207 207 207 207 212 220 225 231 236 243 245 239 233 231 231 227 230 243 251 255 257 253 248 238 224 216 211 212 212 212 214 214 214 213 212 216 218 219 221 223 225 228 229 230 232 235 237
210 214 218 217 217 216 215 215 213 211 213 216 216 214 212 213 216 225 228 224 223 227 235 238 242 243 240 237 235 231 226 220 213 212 212 213 212 210 210 210 209 209 209 213 219 225 232 237 244 243 232 225 227 227 224 231 244 250 251 251 249 249 240 229 223 219 217 215 216 216 212 211 211 210 213 217 219 222 224 226 228 229 229 229 232 236
211 216 220 219 218 218 216 216 212 207 205 208 212 212 211 209 209 216 222 221 219 223 231 235 238 244 242 237 236 233 230 224 215 211 210 211 211 211 212 211 211 210 209 211 217 225 234 241 244 238 225 222 226 225 222 230 241 245 248 247 247 250 238 225 223 222 219 218 219 218 211 208 210 210 213 217 219 222 223 225 227 228 228 227 231 237
209 218 220 216 215 216 214 214 211 206 203 204 206 204 207 209 205 203 208 212 215 220 228 232 237 241 240 237 237 234 230 226 221 215 212 210 209 209 209 210 211 212 211 211 218 229 237 241 240 228 221 223 227 226 224 231 240 242 244 244 245 251 236 220 218 219 219 217 216 215 209 206 209 210 212 217 220 221 222 225 228 229 228 229 233 237
209 219 221 215 212 213 212 210 208 205 202 203 204 201 204 209 207 208 210 208 209 218 224 228 238 241 236 234 235 233 229 226 222 219 217 213 209 207 205 207 208 210 210 211 218 229 234 235 230 221 221 226 228 228 228 233 239 240 241 240 239 239 226 213 212 215 215 213 212 210 207 207 208 207 209 214 219 220 223 226 228 228 227 230 234 235
212 218 221 215 211 210 210 210 208 205 201 202 204 199 198 201 202 210 215 209 209 221 219 216 231 242 233 232 230 227 227 227 224 222 221 217 211 208 205 203 203 205 206 208 215 223 225 223 220 219 223 227 228 228 230 233 235 237 235 231 229 227 215 205 205 210 210 212 216 213 209 207 206 206 208 215 220 222 224 227 227 226 227 231 234 235
211 211 215 215 212 209 207 210 211 206 200 201 202 194 189 188 192 202 208 209 214 223 217 213 222 241 234 232 229 223 221 223 225 224 222 219 215 211 205 200 201 205 205 208 215 220 220 217 216 221 225 227 230 230 231 233 232 232 229 221 217 215 211 207 206 209 209 213 218 215 209 206 203 203 206 212 221 227 227 225 224 224 229 233 236 237
210 203 202 204 206 207 205 206 209 205 199 203 200 186 183 184 189 197 199 203 215 224 223 220 224 236 240 231 227 223 219 218 220 222 222 221 219 215 208 202 203 208 209 211 218 220 220 216 217 225 228 229 232 231 230 232 232 232 231 229 223 212 211 214 213 209 207 210 216 214 206 203 200 199 201 205 216 224 225 223 223 226 231 235 237 235
210 200 194 194 196 203 206 206 207 202 200 207 200 184 180 183 186 195 199 202 213 226 227 222 218 226 240 229 222 221 221 220 217 217 220 221 220 217 213 209 210 213 214 217 221 222 221 217 219 228 231 230 231 228 228 233 238 241 240 245 242 224 217 218 211 205 206 213 218 212 197 194 199 198 198 203 211 218 222 222 223 229 234 235 233 230
214 204 198 198 197 199 206 208 207 202 199 206 201 187 181 183 188 195 203 214 229 242 231 215 209 216 242 232 226 222 219 222 220 215 216 220 220 219 217 215 217 219 219 222 224 225 224 219 220 228 230 227 223 222 227 232 239 244 240 241 242 229 222 215 205 203 213 220 221 212 193 192 202 199 198 205 209 216 220 221 224 229 233 233 229 226
195 202 200 204 206 202 205 205 206 205 198 197 200 191 186 194 203 212 223 237 250 252 233 217 209 213 237 236 230 228 221 218 221 218 215 216 217 218 219 219 221 223 224 225 226 229 228 222 220 227 228 221 217 220 227 229 228 233 235 235 232 224 219 213 206 210 222 226 221 212 203 199 201 198 199 206 209 215 219 222 224 227 230 230 225 221
163 180 195 203 206 200 197 196 199 204 193 185 192 189 190 205 218 232 238 239 244 239 230 229 221 217 228 233 232 233 228 219 217 218 218 217 217 218 219 221 223 226 226 228 231 233 229 221 220 227 224 215 214 220 227 226 224 227 229 228 227 221 216 214 213 218 226 229 220 212 209 203 199 200 204 208 212 216 218 220 222 221 222 226 222 218
174 174 189 198 199 192 187 184 186 194 187 181 184 183 183 194 206 222 224 220 231 203 185 227 221 224 237 234 228 229 229 225 219 217 218 220 221 222 223 224 226 228 229 231 234 231 225 219 220 224 219 211 212 218 224 226 226 230 228 227 228 222 217 217 220 224 226 226 220 213 211 207 202 206 213 221 230 229 226 226 226 219 213 218 218 216
184 181 189 193 194 192 188 181 180 184 185 183 184 181 179 175 183 205 208 200 222 196 191 209 209 224 245 240 234 224 220 223 221 219 219 220 223 225 226 228 228 230 231 232 232 226 220 218 219 221 216 210 210 215 222 225 227 227 221 223 228 223 219 219 222 227 228 227 223 214 210 208 207 215 225 238 248 242 233 233 234 225 212 213 216 214
183 185 191 188 189 191 191 192 188 183 183 187 187 185 186 187 185 193 201 201 158 160 186 190 193 211 225 237 242 234 225 224 224 223 220 219 222 223 225 227 226 225 227 229 227 223 219 216 218 220 215 210 208 211 220 225 225 220 214 221 228 223 221 220 222 229 231 228 225 217 211 206 208 223 236 247 258 252 240 238 237 228 214 213 216 213
187 193 189 185 189 192 190 198 198 186 182 188 189 192 197 195 190 184 174 180 166 140 182 190 202 217 210 231 239 237 235 232 231 229 224 221 222 223 226 225 222 219 221 224 223 220 218 216 218 219 213 208 206 209 218 225 225 220 214 220 226 224 224 221 222 232 235 232 228 219 212 208 212 228 244 255 263 257 247 243 237 227 217 216 215 212
187 197 187 180 186 195 192 193 196 190 186 187 190 198 198 189 179 174 160 161 174 198 208 196 215 227 243 263 232 223 230 231 232 232 227 224 224 224 226 222 218 217 220 222 219 216 216 217 218 216 211 207 205 207 217 224 225 220 215 220 226 227 226 223 223 233 235 231 227 215 206 210 220 235 247 254 256 250 245 240 233 224 217 215 213 211
180 180 186 183 179 190 194 191 194 197 193 189 192 197 194 191 193 181 157 151 177 210 219 195 216 223 230 253 231 214 219 220 223 225 222 221 221 220 219 217 215 218 220 220 216 213 213 216 218 215 209 205 203 207 215 222 222 217 215 219 225 229 229 225 226 234 233 222 219 214 208 214 227 235 240 245 244 241 239 232 224 218 213 212 211 210
175 169 183 189 180 175 185 188 192 200 201 197 194 192 190 197 204 192 167 154 178 198 219 199 217 218 216 227 232 220 218 217 214 212 211 214 215 212 211 213 215 218 220 217 213 211 212 216 217 213 207 203 202 208 216 219 217 214 214 217 222 226 227 227 230 238 237 222 215 216 216 222 230 232 234 240 239 231 227 222 215 212 212 211 211 211
171 169 175 186 180 167 179 189 192 194 198 201 198 191 190 198 199 195 195 170 171 181 214 196 203 219 222 230 235 226 219 220 213 207 205 207 208 207 207 211 215 217 217 214 211 211 212 215 214 210 205 202 204 212 218 218 214 211 212 215 219 223 227 229 232 237 237 229 222 221 222 227 233 234 231 234 238 231 222 215 210 211 212 212 213 213
172 178 164 178 182 179 186 193 194 191 190 192 195 192 190 188 189 196 206 208 186 151 202 205 213 232 231 237 234 220 213 224 221 213 207 201 202 203 205 209 212 213 212 210 211 211 212 212 210 207 204 202 208 216 219 218 213 210 212 215 217 223 227 228 229 231 233 234 233 231 230 231 238 246 239 236 243 238 227 217 209 210 214 214 215 217
166 179 167 178 185 188 194 195 194 195 192 188 190 194 194 186 177 186 203 218 221 223 164 192 276 254 229 221 223 216 216 227 226 215 205 197 197 199 201 204 206 207 207 208 209 210 209 209 208 206 204 206 213 218 219 217 212 210 213 214 215 220 225 227 228 229 233 235 236 237 238 238 242 250 251 250 249 239 229 222 212 211 215 215 216 219
149 164 158 175 183 183 196 198 195 197 198 194 194 196 197 195 189 189 194 207 214 228 243 241 306 265 214 204 205 209 218 225 222 211 201 193 194 197 199 202 203 205 206 205 206 207 207 208 208 207 207 211 217 220 220 218 213 212 215 215 215 218 224 226 224 226 230 233 235 237 237 236 239 245 246 249 251 241 231 223 216 217 220 218 219 222
155 149 127 152 171 175 190 199 197 199 200 198 199 198 198 198 196 193 201 209 212 216 216 232 266 250 212 207 204 202 211 219 218 208 198 193 194 197 200 203 204 206 206 201 200 203 206 208 209 209 210 214 219 220 221 218 213 214 215 213 214 218 225 226 222 223 228 231 235 236 233 229 232 239 239 246 253 249 237 227 222 225 226 223 224 228
167 145 130 140 155 165 172 181 191 198 200 201 200 198 198 198 194 191 202 211 220 222 216 232 265 249 238 214 210 207 210 217 217 208 197 192 192 192 197 203 205 206 203 197 196 199 203 207 209 210 212 216 219 220 220 216 212 213 213 212 214 219 227 228 223 223 227 231 233 234 236 234 231 236 241 248 252 248 240 234 231 232 231 227 229 233
184 161 143 150 162 172 172 173 186 191 194 199 200 197 196 195 193 193 199 205 216 222 219 230 244 240 307 284 222 215 216 221 218 208 198 191 189 192 198 205 206 203 198 195 195 197 201 205 207 209 211 214 217 219 218 214 211 210 209 211 215 220 226 229 228 227 228 231 231 227 232 236 234 239 244 244 244 242 240 237 235 234 232 230 232 237
210 201 167 168 178 185 188 186 190 188 186 191 196 195 195 192 193 198 199 200 206 206 215 230 241 250 285 327 264 219 214 221 217 205 197 193 194 200 205 206 204 198 192 192 194 196 200 203 204 206 208 211 214 217 215 211 210 209 207 210 216 222 227 229 231 232 232 235 238 235 236 237 233 232 234 234 236 238 237 235 233 232 231 230 235 241
206 207 203 191 192 196 198 195 193 189 185 188 193 194 194 190 195 204 207 199 200 202 221 235 244 256 273 304 291 238 206 211 210 199 196 197 200 205 205 203 200 193 189 190 192 195 198 200 202 203 204 208 212 213 210 208 209 209 208 212 217 221 225 228 231 235 235 237 242 243 244 244 237 228 227 230 233 234 233 232 230 229 228 232 239 244
206 224 223 308 290 205 199 200 194 188 186 189 191 191 192 191 196 206 209 201 197 204 219 233 245 256 271 299 287 246 188 187 195 194 196 198 200 203 202 201 199 192 188 189 190 193 196 198 200 201 203 206 210 211 208 207 210 211 211 214 217 220 224 227 230 234 235 235 239 242 245 243 233 226 227 231 232 231 231 230 228 228 231 237 243 244
216 262 281 322 315 194 190 197 194 188 185 186 188 188 190 192 193 201 207 206 207 213 221 236 261 266 279 309 287 237 174 166 183 189 193 195 197 199 199 199 196 190 187 188 189 191 194 196 198 200 203 206 209 210 209 210 212 213 214 217 220 223 224 225 227 231 234 236 239 243 245 238 227 224 228 230 229 228 228 228 229 231 235 240 243 244
239 265 294 322 311 177 179 188 190 188 185 184 186 187 190 193 193 199 207 212 218 224 228 245 267 270 281 315 292 227 182 161 174 187 192 193 194 194 195 194 189 186 186 188 189 191 193 195 198 199 201 205 208 208 208 211 213 213 214 216 220 221 221 221 224 230 234 235 237 241 244 236 228 227 229 228 229 229 230 232 233 235 239 242 242 242
246 267 301 325 314 170 174 181 185 186 185 185 186 186 191 195 194 198 207 211 218 226 232 245 258 262 276 308 292 230 207 181 171 184 191 193 190 186 187 187 183 184 187 187 189 191 193 195 196 196 197 202 204 204 204 208 212 215 214 217 218 214 214 219 224 228 231 230 234 240 238 230 226 230 234 234 233 232 233 234 234 237 243 244 240 241
240 265 301 321 329 169 178 184 182 177 177 188 191 187 189 192 191 197 206 210 214 223 230 237 244 255 274 293 294 244 228 211 195 186 187 190 187 182 181 183 183 184 186 187 189 190 191 192 193 191 193 198 198 199 202 207 214 217 218 226 228 214 208 218 225 226 228 228 233 237 230 223 223 229 236 239 238 237 237 238 240 241 244 244 244 245
241 271 300 314 329 161 175 178 173 166 161 186 188 185 187 191 191 196 204 205 206 213 221 230 240 253 266 274 280 257 234 224 214 199 190 188 183 179 180 183 185 186 186 188 189 189 188 189 190 190 192 194 192 194 202 208 216 221 222 232 237 223 210 218 222 220 221 223 225 226 223 221 221 224 231 237 243 248 246 240 238 236 236 240 242 242
252 277 307 312 150 141 150 158 160 155 158 180 182 185 190 194 195 198 202 201 197 202 214 226 234 240 247 255 261 249 231 227 220 210 203 195 183 178 178 181 186 189 190 189 184 180 181 185 190 193 193 192 189 194 203 208 216 225 227 230 233 228 220 218 214 214 217 217 215 216 220 219 213 215 224 232 241 249 237 216 217 219 221 227 232 235
270 279 304 304 142 138 143 151 151 124 134 162 176 183 189 195 199 202 205 207 207 208 214 214 212 218 228 234 236 229 222 225 222 213 208 200 184 176 173 175 179 185 190 187 178 172 175 181 189 194 194 193 193 196 203 208 215 224 229 229 228 227 224 217 209 208 211 212 214 215 213 210 206 211 222 227 228 225 207 197 200 204 211 222 230 238
256 258 262 132 144 143 136 131 126 121 125 150 170 176 180 186 193 198 202 204 207 213 215 202 188 192 205 209 207 200 199 207 211 206 203 196 184 175 170 169 172 177 182 182 178 177 181 186 191 196 197 198 199 201 206 212 218 222 227 230 230 226 219 212 208 206 204 206 211 211 206 205 208 214 220 218 212 204 197 196 198 203 213 224 233 241
229 187 119 120 146 143 130 120 118 117 112 143 167 178 184 185 188 194 197 194 197 207 208 194 182 181 186 188 183 174 174 178 184 191 195 195 190 184 176 167 163 165 174 183 188 191 192 194 196 198 201 203 204 206 212 217 222 226 229 234 232 221 210 208 207 203 203 207 210 210 209 207 209 214 215 207 201 199 200 203 206 211 219 227 233 239
325 141 133 127 138 139 130 120 114 99 107 130 157 178 188 188 185 188 189 188 192 198 195 184 178 178 181 183 178 168 161 157 159 174 189 191 189 191 193 192 183 176 182 198 204 207 207 206 205 204 205 207 209 212 217 222 226 229 234 240 236 218 206 206 208 208 213 218 215 216 218 213 209 212 211 203 199 201 205 210 214 219 224 229 233 235
68 120 134 132 136 136 126 110 93 104 122 130 146 170 181 182 180 181 185 190 189 190 187 180 176 178 181 182 176 167 162 161 161 166 173 177 180 185 194 202 204 209 223 230 224 220 217 215 215 214 212 212 212 215 221 227 230 233 237 243 237 217 203 204 210 214 219 221 219 223 228 225 220 218 212 205 203 205 210 215 220 224 226 228 231 231
99 120 133 133 134 133 123 109 98 112 129 132 138 160 173 175 175 179 186 184 183 188 189 184 182 181 180 180 179 174 169 170 173 173 172 175 182 186 191 197 202 208 216 223 223 223 219 216 216 217 215 214 214 218 224 229 233 236 240 242 230 210 202 206 209 209 212 215 218 224 228 230 233 229 218 210 205 204 212 220 224 225 225 225 227 227
90 112 122 123 125 123 118 113 106 112 127 134 139 152 164 168 170 179 186 183 182 187 190 191 191 190 184 180 179 176 169 166 174 181 182 182 185 188 190 193 195 198 202 204 206 207 209 209 210 210 210 211 215 221 228 234 236 236 238 236 223 207 207 213 213 212 212 213 215 221 228 235 238 230 218 211 206 207 217 224 225 225 224 224 223 222
75 94 102 108 113 114 113 110 104 113 127 133 138 148 158 163 165 174 181 182 182 183 186 192 196 194 189 181 175 172 165 160 166 174 176 174 175 174 174 176 179 185 191 195 197 197 198 203 209 211 211 213 217 223 230 236 238 237 236 230 217 210 216 218 217 217 215 213 216 225 233 233 225 213 208 208 209 214 220 223 223 223 223 221 219 219
72 78 89 101 105 105 106 101 102 121 129 128 138 148 150 150 155 163 169 173 178 182 184 188 190 189 185 178 174 171 166 161 166 173 173 171 171 169 167 167 168 172 177 184 192 197 200 205 211 215 217 221 224 228 233 238 240 240 240 231 212 210 218 219 217 216 213 215 223 226 222 209 198 198 202 205 210 216 220 221 222 222 220 217 215 215
80 81 91 103 106 104 110 113 112 116 118 119 130 140 140 137 141 149 158 164 171 178 183 186 189 187 182 179 179 179 172 165 170 178 179 179 177 172 170 169 171 175 182 189 195 200 205 211 216 220 226 232 235 235 236 237 238 238 237 226 209 208 215 216 214 211 212 220 225 217 202 192 194 200 205 207 210 214 218 220 220 218 215 214 212 209
99 96 99 106 110 110 113 118 119 119 118 118 121 128 136 140 138 141 157 167 171 177 183 188 191 191 189 188 191 192 184 174 174 179 182 183 181 178 177 177 180 186 192 197 200 202 206 212 218 224 230 235 239 238 233 231 233 232 225 213 205 206 210 209 207 208 213 221 219 207 197 198 202 207 211 212 212 213 215 215 212 211 211 208 204 202
113 112 113 114 116 117 118 122 125 126 126 124 119 121 132 144 146 147 163 178 184 184 186 190 193 194 196 197 199 203 200 188 181 180 181 181 183 184 184 187 191 194 195 198 200 200 203 207 213 222 229 233 238 235 226 223 226 222 211 205 204 205 205 202 201 207 216 220 213 205 203 208 212 216 218 216 214 214 215 211 208 207 206 202 200 204
123 126 126 123 124 127 126 126 128 129 130 130 127 124 129 138 145 153 168 184 193 194 195 197 199 200 201 203 205 208 209 203 194 188 182 181 185 188 190 193 196 196 197 200 202 202 204 206 209 216 223 229 233 223 207 207 219 220 215 213 212 208 204 200 200 206 215 216 212 209 210 215 220 221 218 213 211 211 210 209 208 206 201 198 200 208
137 141 135 128 130 135 134 133 136 137 137 137 135 135 138 138 141 152 163 176 188 197 202 205 207 207 209 211 213 215 217 216 207 197 189 185 186 190 195 199 200 200 201 203 205 207 208 210 213 217 221 227 229 217 201 199 210 218 221 221 215 208 203 201 202 208 214 214 212 211 215 221 224 221 214 208 207 206 204 204 205 206 204 204 208 212
150 154 149 142 143 146 145 144 144 144 146 149 147 146 146 143 142 149 159 170 182 194 204 209 212 213 214 216 220 222 224 225 217 205 197 193 191 191 196 201 204 206 206 206 207 208 210 213 215 218 222 227 229 221 205 197 202 212 219 218 211 207 205 206 208 212 216 215 213 214 220 225 224 217 210 206 205 206 206 205 205 206 208 211 218 222
158 161 161 162 164 160 153 151 154 156 157 161 167 169 163 157 154 157 163 168 174 186 204 213 215 217 219 222 225 227 229 229 226 217 207 202 200 199 199 200 205 209 211 212 212 210 211 215 218 219 225 227 222 217 214 208 206 210 213 210 208 208 209 212 215 216 215 214 214 218 222 223 219 212 207 205 204 206 208 210 211 211 213 218 223 225
Height
3028 3030 3029 3028 3030 3034 3039 3044 3049 3052 3056 3060 3063 3066 3068 3070 3072 3074 3078 3081 3083 3083 3081 3083 3084 3085 3088 3090 3094 3098 3100 3102 3103 3106 3109 3112 3115 3117 3119 3122 3124 3126 3128 3130 3132 3133 3135 3136 3138 3138 3139 3140 3141 3143 3145 3145 3145 3146 3147 3148 3148 3148 3149 3150 3150 3150 3151 3153 3154 3155 3157 3158 3159 3161 3163 3165 3166 3167 3169 3170 3171 3171 3172 3173 3174 3175
3026 3024 3022 3025 3030 3034 3040 3045 3049 3053 3056 3059 3062 3064 3067 3069 3071 3073 3076 3078 3080 3080 3080 3082 3083 3083 3085 3088 3091 3094 3096 3098 3100 3103 3106 3109 3112 3114 3117 3119 3121 3124 3125 3127 3129 3131 3133 3134 3135 3135 3136 3138 3139 3141 3143 3143 3143 3144 3145 3145 3146 3146 3146 3147 3148 3150 3151 3152 3153 3155 3155 3157 3158 3159 3161 3162 3164 3165 3166 3168 3169 3170 3170 3171 3172 3173
3021 3018 3018 3024 3030 3035 3040 3044 3049 3053 3056 3058 3060 3063 3065 3067 3070 3072 3074 3076 3078 3078 3078 3080 3081 3081 3083 3085 3087 3090 3092 3095 3098 3101 3103 3106 3108 3111 3113 3116 3119 3121 3122 3125 3127 3128 3130 3131 3132 3133 3134 3136 3137 3138 3140 3140 3140 3141 3142 3142 3143 3143 3143 3144 3146 3148 3149 3151 3153 3154 3155 3155 3157 3158 3159 3160 3161 3163 3164 3166 3167 3168 3169 3170 3171 3172
3015 3014 3017 3024 3030 3034 3038 3042 3047 3051 3054 3056 3057 3060 3062 3064 3068 3071 3073 3074 3076 3077 3077 3078 3079 3079 3081 3082 3083 3086 3089 3092 3095 3097 3100 3102 3105 3107 3111 3114 3116 3118 3120 3123 3125 3126 3128 3128 3129 3131 3132 3133 3134 3135 3136 3137 3138 3138 3139 3139 3139 3139 3139 3140 3142 3145 3147 3149 3151 3153 3153 3154 3155 3156 3157 3158 3159 3161 3162 3164 3165 3166 3167 3168 3169 3170
3013 3013 3017 3024 3029 3033 3037 3040 3044 3048 3052 3054 3055 3058 3060 3063 3066 3069 3072 3073 3074 3075 3075 3077 3078 3076 3077 3078 3079 3082 3085 3088 3090 3093 3096 3098 3101 3104 3107 3110 3113 3116 3118 3121 3122 3124 3125 3126 3128 3129 3130 3131 3132 3133 3134 3135 3135 3135 3135 3135 3135 3135 3135 3136 3139 3141 3144 3146 3148 3149 3150 3151 3153 3153 3155 3156 3158 3159 3161 3162 3164 3165 3166 3167 3168 3169
3013 3015 3018 3023 3027 3031 3035 3038 3041 3045 3049 3052 3053 3056 3060 3063 3066 3068 3070 3072 3073 3073 3073 3076 3075 3072 3073 3075 3076 3079 3081 3084 3086 3089 3092 3095 3099 3101 3103 3105 3109 3112 3115 3117 3119 3120 3122 3124 3126 3127 3127 3128 3129 3130 3131 3132 3132 3131 3130 3129 3129 3131 3132 3133 3135 3138 3140 3142 3144 3145 3147 3149 3150 3152 3153 3154 3156 3158 3159 3161 3162 3163 3164 3165 3166 3167
3013 3016 3018 3021 3025 3029 3033 3036 3039 3043 3047 3049 3051 3056 3060 3063 3065 3067 3068 3070 3070 3070 3071 3073 3072 3070 3070 3072 3073 3076 3078 3080 3083 3085 3089 3092 3095 3098 3100 3103 3106 3109 3111 3113 3115 3117 3119 3121 3123 3124 3125 3126 3127 3128 3129 3130 3129 3126 3124 3125 3126 3128 3130 3131 3132 3134 3136 3138 3139 3141 3144 3146 3147 3150 3151 3152 3154 3156 3158 3159 3161 3162 3162 3163 3165 3166
3010 3015 3018 3020 3024 3027 3030 3032 3036 3041 3045 3047 3050 3056 3059 3061 3064 3066 3067 3068 3068 3068 3069 3070 3071 3070 3068 3068 3070 3072 3075 3077 3079 3082 3085 3089 3092 3095 3098 3100 3103 3106 3108 3110 3112 3114 3117 3119 3121 3122 3122 3124 3125 3126 3127 3126 3124 3123 3124 3127 3128 3128 3129 3129 3130 3131 3132 3134 3135 3137 3140 3143 3145 3147 3148 3150 3152 3154 3156 3158 3159 3160 3161 3162 3163 3164
3008 3013 3016 3018 3022 3025 3027 3030 3034 3040 3044 3045 3051 3057 3059 3062 3064 3064 3066 3066 3067 3068 3066 3066 3068 3068 3065 3066 3068 3069 3072 3074 3076 3080 3083 3086 3089 3092 3095 3097 3100 3103 3105 3107 3109 3112 3114 3116 3118 3119 3120 3121 3122 3124 3124 3123 3123 3125 3127 3129 3130 3129 3128 3128 3128 3129 3130 3131 3132 3135 3138 3141 3143 3144 3146 3148 3150 3152 3154 3156 3157 3158 3159 3160 3162 3163
3008 3012 3016 3018 3021 3023 3025 3030 3035 3039 3042 3046 3052 3057 3059 3061 3062 3063 3064 3065 3066 3065 3062 3062 3065 3065 3062 3062 3065 3066 3067 3070 3073 3077 3081 3083 3087 3089 3092 3095 3097 3100 3102 3104 3106 3108 3111 3113 3115 3116 3118 3119 3120 3121 3121 3121 3124 3125 3125 3126 3128 3128 3127 3126 3127 3128 3127 3128 3131 3136 3138 3140 3142 3143 3145 3146 3148 3150 3152 3154 3155 3157 3158 3159 3160 3161
3008 3011 3016 3018 3020 3023 3026 3031 3035 3039 3043 3047 3051 3055 3058 3060 3060 3062 3062 3064 3065 3060 3058 3060 3063 3064 3061 3058 3060 3063 3064 3067 3071 3075 3078 3081 3084 3086 3089 3092 3094 3097 3099 3101 3103 3105 3107 3110 3112 3113 3115 3116 3118 3118 3118 3120 3121 3121 3121 3123 3125 3125 3125 3125 3125 3124 3124 3126 3131 3136 3137 3139 3141 3142 3143 3144 3146 3148 3150 3152 3153 3155 3155 3156 3158 3159
3008 3010 3013 3016 3019 3023 3026 3030 3034 3038 3043 3046 3048 3052 3056 3058 3060 3061 3062 3063 3061 3056 3055 3059 3062 3063 3060 3055 3057 3060 3063 3067 3070 3072 3076 3079 3081 3084 3086 3089 3092 3094 3096 3098 3099 3102 3105 3107 3109 3111 3113 3114 3115 3116 3116 3117 3117 3117 3118 3121 3123 3123 3123 3123 3122 3122 3123 3127 3132 3134 3136 3138 3138 3139 3141 3142 3144 3147 3149 3150 3151 3152 3153 3155 3156 3158
3007 3009 3011 3014 3019 3022 3025 3028 3033 3037 3040 3043 3045 3048 3051 3054 3058 3058 3056 3056 3055 3053 3055 3057 3059 3060 3056 3053 3056 3058 3061 3064 3067 3071 3074 3077 3079 3082 3085 3087 3089 3091 3093 3094 3096 3099 3102 3105 3107 3108 3110 3112 3113 3114 3114 3114 3117 3118 3118 3119 3121 3121 3121 3122 3121 3120 3122 3127 3130 3132 3134 3136 3135 3136 3138 3141 3143 3146 3148 3150 3150 3151 3152 3153 3155 3156
3006 3009 3010 3013 3016 3019 3022 3024 3027 3030 3034 3038 3040 3042 3044 3046 3051 3051 3049 3050 3052 3053 3054 3056 3058 3056 3052 3052 3054 3056 3059 3062 3065 3069 3072 3074 3077 3080 3082 3084 3086 3088 3090 3092 3094 3097 3099 3102 3104 3106 3108 3109 3110 3111 3111 3113 3117 3119 3118 3118 3119 3119 3120 3120 3119 3119 3121 3126 3129 3130 3132 3132 3131 3134 3138 3140 3143 3144 3146 3148 3149 3150 3151 3152 3153 3154
3003 3006 3007 3009 3012 3015 3019 3021 3023 3026 3031 3035 3037 3040 3041 3040 3043 3045 3045 3047 3050 3051 3053 3055 3055 3052 3050 3051 3052 3054 3058 3060 3063 3066 3069 3071 3074 3077 3079 3081 3082 3085 3087 3089 3092 3094 3097 3099 3101 3103 3105 3107 3108 3109 3110 3112 3115 3116 3116 3116 3117 3118 3118 3118 3118 3118 3120 3124 3127 3128 3131 3130 3130 3134 3138 3140 3141 3143 3144 3147 3149 3150 3149 3150 3152 3153
3002 3004 3004 3007 3011 3013 3017 3021 3024 3028 3031 3034 3037 3040 3040 3040 3041 3043 3044 3046 3048 3050 3051 3052 3050 3048 3048 3049 3050 3052 3055 3057 3060 3063 3065 3068 3071 3073 3076 3077 3080 3081 3084 3086 3089 3091 3094 3096 3098 3100 3102 3104 3106 3107 3108 3109 3112 3113 3114 3115 3116 3117 3117 3118 3118 3117 3118 3123 3126 3128 3131 3130 3129 3134 3137 3139 3140 3142 3144 3145 3147 3148 3148 3149 3151 3152
3001 3004 3005 3008 3011 3013 3016 3020 3024 3026 3029 3032 3035 3036 3037 3040 3042 3043 3045 3046 3049 3049 3048 3047 3048 3048 3048 3048 3048 3050 3052 3054 3057 3059 3061 3065 3067 3070 3073 3075 3077 3079 3081 3084 3086 3089 3091 3094 3096 3097 3100 3102 3104 3105 3106 3107 3110 3111 3112 3114 3115 3116 3116 3117 3117 3116 3117 3122 3125 3128 3130 3129 3130 3134 3137 3139 3140 3141 3142 3144 3146 3147 3147 3148 3150 3150
2999 3003 3005 3007 3010 3013 3016 3021 3024 3026 3027 3029 3031 3033 3037 3041 3042 3041 3043 3046 3047 3047 3045 3045 3046 3048 3048 3046 3045 3047 3049 3051 3054 3056 3058 3061 3064 3067 3070 3073 3075 3077 3079 3082 3084 3087 3089 3090 3093 3095 3097 3100 3101 3102 3104 3106 3108 3110 3111 3112 3114 3115 3115 3116 3116 3116 3118 3122 3125 3127 3129 3130 3132 3134 3136 3137 3139 3140 3141 3143 3144 3145 3146 3147 3148 3149
2999 3002 3005 3007 3009 3011 3015 3020 3023 3024 3026 3028 3030 3033 3036 3039 3039 3040 3042 3043 3045 3046 3045 3044 3045 3045 3045 3044 3044 3045 3046 3048 3051 3053 3056 3058 3061 3064 3067 3070 3072 3074 3077 3080 3082 3084 3086 3088 3090 3092 3095 3097 3099 3100 3103 3105 3107 3108 3110 3111 3112 3114 3115 3116 3116 3116 3119 3123 3125 3126 3128 3130 3132 3134 3136 3137 3138 3139 3140 3141 3142 3143 3144 3146 3147 3148
2998 3000 3003 3006 3009 3011 3013 3016 3017 3019 3023 3028 3030 3033 3035 3036 3037 3039 3040 3040 3041 3044 3044 3043 3043 3042 3041 3042 3043 3044 3045 3047 3049 3052 3054 3057 3060 3062 3065 3068 3070 3073 3075 3078 3080 3081 3083 3085 3087 3090 3093 3095 3096 3099 3101 3104 3105 3107 3108 3110 3111 3113 3114 3115 3115 3116 3118 3121 3124 3126 3127 3128 3130 3133 3135 3136 3137 3138 3139 3139 3140 3141 3142 3144 3145 3147
2997 2999 3001 3004 3008 3009 3009 3010 3012 3015 3019 3024 3027 3030 3032 3034 3036 3038 3039 3038 3039 3040 3042 3042 3040 3038 3037 3039 3040 3042 3044 3046 3048 3050 3053 3055 3058 3061 3064 3066 3069 3071 3073 3075 3077 3079 3081 3083 3086 3089 3092 3093 3095 3097 3100 3102 3104 3105 3107 3109 3111 3112 3113 3114 3114 3115 3116 3118 3122 3124 3125 3127 3129 3131 3135 3136 3136 3136 3138 3138 3138 3139 3141 3143 3144 3145
2996 2998 2999 3002 3005 3006 3007 3008 3012 3016 3019 3022 3025 3028 3031 3033 3035 3036 3037 3037 3038 3039 3039 3040 3038 3035 3035 3035 3036 3039 3042 3044 3046 3049 3051 3053 3056 3059 3061 3064 3066 3068 3071 3073 3075 3077 3080 3082 3085 3088 3090 3091 3093 3095 3098 3100 3102 3104 3106 3108 3109 3111 3112 3112 3113 3115 3116 3117 3120 3122 3123 3125 3127 3130 3133 3134 3134 3135 3136 3137 3137 3137 3139 3141 3142 3144
2995 2997 2998 3000 3003 3006 3008 3010 3013 3016 3020 3023 3025 3027 3030 3032 3033 3034 3034 3035 3038 3038 3038 3040 3038 3034 3032 3033 3034 3037 3040 3042 3044 3046 3049 3051 3054 3057 3059 3062 3064 3066 3068 3071 3073 3076 3079 3081 3084 3086 3088 3090 3091 3094 3096 3098 3100 3103 3105 3106 3108 3109 3110 3111 3113 3115 3115 3117 3119 3120 3121 3123 3126 3129 3130 3132 3132 3134 3134 3135 3135 3136 3138 3140 3141 3143
2994 2996 2998 3001 3005 3008 3010 3011 3014 3017 3020 3022 3024 3025 3028 3030 3032 3034 3035 3035 3037 3037 3038 3039 3037 3032 3031 3032 3033 3036 3039 3040 3043 3045 3047 3050 3052 3055 3058 3060 3062 3065 3067 3069 3072 3075 3077 3080 3082 3084 3086 3088 3090 3092 3094 3097 3099 3101 3103 3105 3106 3108 3108 3110 3112 3114 3114 3115 3117 3119 3121 3123 3125 3127 3128 3129 3131 3132 3132 3133 3134 3136 3137 3139 3140 3142
2994 2996 2997 3000 3005 3009 3010 3012 3014 3016 3017 3018 3020 3022 3025 3029 3032 3034 3035 3035 3035 3035 3037 3037 3034 3031 3031 3032 3034 3036 3038 3039 3041 3043 3045 3048 3051 3054 3057 3059 3061 3063 3065 3068 3071 3073 3075 3078 3080 3082 3084 3086 3088 3090 3093 3095 3098 3100 3102 3103 3105 3106 3107 3109 3111 3112 3112 3113 3116 3119 3122 3124 3125 3126 3127 3128 3129 3130 3131 3132 3133 3135 3136 3138 3139 3141
2995 2996 2997 2998 3001 3003 3004 3004 3004 3005 3009 3014 3017 3020 3024 3027 3030 3032 3033 3034 3033 3034 3036 3035 3032 3030 3031 3033 3034 3036 3037 3039 3040 3042 3044 3047 3050 3053 3055 3058 3059 3061 3064 3067 3069 3071 3073 3075 3078 3080 3083 3085 3087 3089 3091 3094 3097 3098 3100 3102 3103 3105 3106 3108 3110 3110 3111 3113 3116 3120 3123 3124 3125 3126 3127 3127 3128 3129 3130 3131 3132 3133 3135 3137 3138 3139
2994 2995 2996 2997 2997 2997 2997 2998 2999 3002 3008 3013 3016 3019 3022 3025 3028 3030 3032 3032 3032 3033 3034 3032 3030 3030 3031 3032 3034 3035 3037 3038 3039 3040 3043 3046 3049 3051 3054 3056 3058 3060 3062 3065 3067 3070 3071 3074 3076 3079 3081 3083 3086 3088 3091 3093 3095 3096 3098 3100 3102 3104 3106 3108 3108 3109 3111 3114 3117 3120 3123 3123 3124 3125 3126 3126 3127 3128 3129 3130 3131 3132 3134 3135 3137 3138
2993 2994 2995 2996 2997 2997 2998 3000 3003 3006 3010 3012 3015 3018 3021 3024 3026 3028 3029 3030 3031 3033 3032 3030 3031 3032 3032 3032 3034 3035 3036 3037 3037 3040 3042 3045 3048 3050 3052 3054 3057 3059 3061 3063 3066 3068 3070 3072 3075 3077 3080 3082 3084 3087 3089 3091 3093 3094 3097 3099 3101 3104 3106 3107 3108 3109 3111 3114 3116 3119 3121 3122 3123 3123 3124 3125 3126 3127 3128 3128 3129 3131 3132 3134 3135 3137
2993 2994 2994 2995 2996 2997 2999 3001 3004 3006 3010 3012 3015 3017 3020 3022 3024 3026 3027 3029 3031 3031 3031 3030 3031 3032 3033 3033 3033 3034 3035 3036 3037 3039 3041 3044 3047 3049 3051 3053 3055 3058 3060 3062 3065 3067 3069 3071 3074 3077 3079 3081 3083 3085 3087 3089 3091 3093 3096 3098 3100 3103 3105 3106 3107 3108 3109 3112 3114 3116 3118 3120 3121 3121 3122 3124 3125 3126 3127 3127 3128 3129 3131 3133 3134 3135
2993 2993 2993 2994 2995 2995 2998 3001 3004 3006 3009 3012 3014 3016 3018 3021 3023 3025 3027 3029 3030 3030 3030 3030 3031 3032 3033 3033 3032 3033 3035 3036 3036 3038 3040 3043 3046 3048 3050 3052 3054 3057 3059 3062 3064 3066 3068 3071 3073 3076 3078 3080 3082 3084 3086 3088 3089 3092 3094 3097 3099 3102 3103 3104 3104 3105 3107 3110 3113 3115 3116 3117 3119 3120 3122 3123 3124 3124 3125 3126 3127 3128 3130 3131 3132 3133
2993 2993 2993 2994 2994 2995 2997 3000 3003 3006 3008 3010 3013 3015 3018 3020 3023 3024 3026 3028 3030 3029 3030 3031 3031 3031 3032 3033 3032 3033 3034 3035 3037 3038 3040 3043 3045 3047 3049 3051 3054 3056 3059 3061 3063 3066 3068 3070 3073 3075 3077 3080 3082 3083 3085 3087 3088 3091 3093 3096 3098 3099 3101 3101 3102 3104 3106 3109 3111 3113 3114 3115 3117 3119 3121 3122 3122 3123 3123 3124 3125 3127 3128 3129 3130 3131
2993 2993 2993 2994 2994 2995 2997 2999 3002 3005 3008 3010 3011 3013 3015 3018 3021 3023 3024 3027 3029 3029 3030 3032 3031 3031 3032 3033 3033 3033 3034 3036 3037 3038 3040 3042 3044 3046 3048 3050 3053 3055 3058 3060 3062 3065 3067 3069 3072 3074 3077 3079 3080 3082 3084 3086 3087 3090 3092 3094 3095 3096 3098 3099 3101 3103 3105 3108 3110 3111 3112 3113 3115 3117 3118 3119 3120 3121 3121 3122 3124 3126 3127 3128 3129 3129
2993 2993 2993 2994 2994 2994 2995 2998 3001 3005 3009 3010 3010 3011 3014 3017 3020 3022 3024 3027 3028 3029 3031 3031 3030 3031 3032 3032 3033 3033 3034 3035 3037 3038 3040 3042 3043 3046 3048 3050 3052 3054 3057 3059 3061 3064 3066 3069 3071 3074 3076 3077 3079 3081 3083 3085 3087 3088 3090 3091 3092 3094 3097 3099 3100 3103 3104 3106 3107 3108 3109 3111 3113 3115 3116 3117 3118 3118 3119 3121 3123 3124 3125 3126 3127 3128
2993 2993 2993 2993 2993 2993 2995 2998 3002 3006 3008 3008 3009 3011 3014 3017 3020 3022 3024 3025 3027 3029 3030 3030 3031 3032 3032 3032 3033 3033 3034 3035 3037 3038 3040 3042 3044 3046 3048 3050 3052 3054 3056 3059 3061 3064 3067 3069 3071 3073 3075 3077 3078 3080 3082 3083 3085 3087 3088 3089 3090 3092 3095 3097 3099 3101 3102 3104 3105 3107 3108 3110 3112 3113 3114 3115 3116 3117 3118 3119 3120 3122 3123 3125 3126 3126
2992 2993 2993 2992 2992 2994 2995 2999 3004 3007 3007 3007 3009 3012 3014 3017 3019 3022 3024 3025 3027 3028 3029 3030 3032 3032 3033 3033 3033 3033 3034 3035 3037 3039 3040 3042 3044 3046 3048 3050 3052 3055 3057 3059 3062 3065 3068 3070 3072 3073 3075 3076 3078 3079 3081 3082 3084 3085 3087 3088 3089 3091 3094 3095 3097 3099 3101 3102 3104 3105 3107 3109 3111 3111 3112 3113 3114 3115 3116 3117 3118 3120 3122 3123 3124 3124
2992 2993 2993 2992 2993 2994 2997 3000 3004 3007 3007 3007 3009 3011 3014 3016 3019 3021 3023 3025 3026 3028 3029 3030 3031 3032 3033 3034 3034 3034 3034 3035 3037 3039 3041 3042 3044 3046 3048 3050 3052 3055 3058 3061 3064 3066 3067 3069 3071 3072 3074 3075 3077 3078 3080 3081 3083 3084 3085 3087 3088 3090 3093 3095 3097 3098 3099 3101 3103 3104 3106 3108 3109 3110 3110 3111 3112 3114 3115 3116 3117 3119 3120 3121 3122 3122
2991 2992 2992 2993 2993 2995 2997 3000 3003 3005 3007 3009 3010 3011 3013 3016 3018 3020 3022 3024 3026 3028 3029 3029 3030 3031 3033 3034 3034 3035 3035 3036 3037 3039 3041 3043 3044 3046 3048 3050 3053 3055 3058 3061 3063 3065 3067 3068 3069 3071 3073 3074 3076 3077 3079 3080 3082 3083 3084 3085 3087 3089 3092 3094 3095 3097 3098 3100 3101 3103 3104 3106 3107 3108 3108 3109 3111 3112 3113 3114 3116 3117 3118 3119 3120 3120
2990 2991 2992 2993 2994 2995 2997 3000 3004 3006 3008 3009 3010 3011 3013 3016 3018 3021 3022 3023 3025 3027 3028 3029 3030 3031 3032 3033 3034 3035 3035 3036 3037 3038 3041 3043 3044 3046 3048 3051 3053 3056 3058 3060 3062 3064 3065 3067 3068 3069 3071 3073 3075 3076 3078 3079 3081 3082 3083 3084 3086 3088 3090 3092 3094 3096 3097 3099 3100 3101 3102 3103 3105 3106 3107 3108 3109 3110 3111 3112 3114 3115 3116 3117 3118 3118
2989 2990 2991 2992 2994 2995 2997 2999 3003 3006 3009 3010 3010 3011 3013 3016 3018 3021 3022 3023 3025 3026 3028 3028 3029 3030 3031 3033 3034 3034 3035 3036 3038 3039 3040 3042 3044 3046 3047 3050 3053 3056 3057 3059 3061 3063 3065 3066 3067 3068 3070 3072 3073 3075 3077 3078 3079 3080 3081 3083 3085 3087 3090 3092 3094 3096 3097 3097 3098 3099 3100 3101 3102 3104 3105 3106 3107 3108 3109 3110 3112 3113 3114 3115 3116 3116
2989 2990 2991 2992 2994 2995 2997 2999 3003 3006 3008 3010 3010 3011 3013 3015 3018 3020 3021 3022 3024 3026 3027 3028 3029 3030 3031 3032 3033 3034 3035 3036 3038 3039 3041 3042 3043 3045 3047 3049 3052 3055 3057 3059 3061 3062 3063 3065 3066 3067 3069 3070 3072 3073 3075 3076 3077 3079 3080 3082 3083 3086 3089 3091 3092 3093 3095 3096 3096 3097 3098 3099 3100 3101 3103 3104 3105 3106 3107 3108 3110 3111 3112 3113 3114 3114
2991 2992 2993 2994 2995 2996 2997 3000 3004 3007 3008 3010 3011 3012 3013 3015 3018 3019 3020 3022 3024 3025 3026 3027 3028 3029 3030 3031 3033 3034 3035 3036 3038 3039 3041 3043 3044 3046 3048 3049 3052 3054 3056 3058 3060 3061 3062 3063 3064 3066 3067 3069 3070 3071 3073 3074 3076 3077 3079 3081 3082 3084 3088 3089 3090 3091 3093 3094 3094 3095 3096 3097 3097 3099 3100 3101 3102 3103 3105 3107 3108 3109 3110 3111 3112 3113
2992 2994 2995 2996 2997 2998 2999 3001 3005 3007 3009 3010 3011 3012 3014 3015 3017 3018 3020 3021 3023 3024 3025 3027 3028 3029 3030 3031 3032 3034 3035 3036 3038 3039 3041 3043 3044 3046 3048 3050 3052 3053 3055 3057 3058 3059 3060 3062 3063 3064 3065 3067 3068 3070 3071 3072 3074 3076 3078 3079 3080 3083 3085 3087 3088 3089 3091 3091 3092 3093 3094 3094 3095 3096 3097 3099 3100 3102 3104 3105 3106 3107 3109 3109 3110 3111
2994 2995 2997 2998 2999 2999 3000 3002 3006 3008 3010 3011 3011 3013 3014 3015 3016 3018 3020 3021 3022 3023 3025 3026 3027 3028 3030 3031 3032 3033 3035 3036 3038 3039 3041 3042 3044 3046 3048 3050 3051 3053 3055 3056 3057 3058 3059 3060 3061 3063 3064 3065 3067 3068 3069 3070 3072 3074 3075 3077 3079 3082 3083 3084 3086 3087 3088 3089 3090 3091 3091 3091 3092 3093 3095 3097 3100 3102 3103 3104 3105 3106 3107 3108 3109 3110
2997 2997 2998 2999 3000 3001 3002 3004 3007 3009 3011 3012 3012 3013 3014 3015 3017 3018 3019 3020 3021 3023 3024 3025 3026 3028 3029 3030 3031 3033 3034 3036 3037 3039 3040 3042 3044 3045 3047 3049 3051 3052 3054 3055 3056 3057 3058 3059 3060 3061 3062 3064 3065 3066 3068 3069 3070 3072 3073 3075 3077 3080 3081 3082 3083 3085 3086 3087 3088 3088 3089 3089 3090 3092 3094 3096 3098 3100 3101 3103 3103 3104 3105 3106 3107 3109
2999 3000 3000 3001 3002 3003 3003 3005 3008 3010 3012 3012 3013 3014 3015 3016 3017 3018 3019 3020 3021 3022 3023 3024 3026 3027 3029 3030 3031 3032 3033 3035 3036 3038 3040 3041 3043 3044 3046 3048 3050 3052 3053 3054 3055 3056 3057 3058 3059 3060 3061 3062 3063 3064 3066 3067 3068 3070 3071 3073 3075 3077 3078 3080 3081 3082 3084 3085 3086 3087 3087 3088 3089 3091 3094 3095 3097 3099 3100 3101 3102 3103 3104 3105 3106 3107
3002 3002 3002 3003 3004 3005 3006 3008 3010 3012 3013 3014 3014 3015 3016 3017 3017 3018 3018 3019 3020 3021 3022 3024 3025 3026 3028 3029 3030 3031 3032 3033 3035 3037 3039 3040 3041 3043 3045 3046 3048 3050 3051 3053 3054 3055 3056 3057 3058 3058 3059 3060 3061 3062 3063 3065 3067 3069 3070 3071 3073 3074 3076 3077 3079 3081 3082 3083 3084 3085 3086 3087 3089 3091 3093 3094 3095 3097 3098 3099 3100 3101 3102 3103 3104 3106
3003 3004 3005 3006 3006 3007 3008 3010 3012 3013 3014 3015 3016 3017 3017 3018 3019 3019 3019 3020 3020 3021 3022 3023 3024 3026 3027 3028 3029 3030 3031 3033 3034 3036 3038 3039 3041 3042 3044 3045 3047 3048 3050 3051 3052 3053 3054 3055 3056 3057 3058 3059 3059 3060 3061 3064 3066 3067 3068 3069 3071 3072 3073 3075 3077 3079 3080 3081 3083 3084 3085 3087 3088 3090 3091 3092 3093 3095 3096 3097 3098 3099 3100 3102 3103 3104
3005 3006 3006 3007 3008 3009 3010 3011 3013 3014 3015 3016 3017 3018 3019 3019 3020 3020 3020 3020 3021 3021 3022 3023 3024 3025 3026 3027 3028 3029 3030 3032 3033 3035 3037 3039 3040 3042 3043 3044 3046 3047 3049 3050 3051 3052 3053 3053 3054 3055 3056 3057 3057 3058 3060 3063 3064 3065 3066 3067 3069 3070 3072 3073 3075 3077 3078 3079 3081 3083 3084 3085 3087 3088 3089 3090 3092 3093 3094 3095 3096 3097 3099 3100 3101 3103
3006 3007 3007 3008 3009 3010 3011 3012 3013 3015 3016 3017 3018 3019 3019 3020 3020 3020 3021 3021 3021 3022 3022 3023 3023 3024 3025 3026 3027 3027 3029 3030 3032 3033 3035 3037 3039 3040 3042 3043 3044 3046 3047 3048 3049 3050 3051 3052 3052 3053 3054 3055 3055 3056 3058 3060 3062 3062 3064 3065 3067 3068 3070 3071 3073 3075 3076 3078 3079 3081 3082 3084 3085 3086 3087 3088 3090 3091 3092 3093 3094 3095 3096 3098 3099 3100
3007 3008 3008 3009 3009 3010 3011 3012 3014 3015 3016 3017 3018 3018 3019 3019 3020 3020 3020 3021 3021 3021 3021 3022 3023 3023 3024 3025 3025 3026 3027 3028 3030 3031 3032 3034 3036 3038 3040 3041 3043 3044 3045 3046 3047 3048 3049 3050 3050 3051 3052 3052 3053 3054 3056 3057 3059 3060 3061 3063 3065 3066 3068 3070 3072 3073 3074 3076 3077 3079 3080 3082 3083 3084 3085 3086 3087 3089 3090 3090 3091 3093 3094 3096 3097 3098
3007 3008 3008 3009 3010 3010 3011 3012 3013 3014 3015 3016 3017 3018 3018 3019 3019 3019 3020 3020 3020 3020 3020 3021 3022 3022 3023 3023 3024 3025 3026 3027 3028 3029 3031 3033 3034 3035 3037 3039 3041 3042 3043 3044 3045 3046 3047 3048 3048 3049 3049 3050 3051 3053 3054 3055 3057 3058 3059 3061 3063 3064 3066 3068 3069 3071 3072 3074 3075 3077 3078 3080 3081 3082 3083 3084 3085 3086 3088 3089 3090 3091 3093 3094 3096 3097